Zurück zum Katalog

SATCOM 3 DEB *

LostHEO
NORAD 32992·DEBRIS·🇺🇸 United States

Gestartet Dec 7, 1979 von Cape Canaveral Space Force Station

Loading…

Nächste Überflüge (nächste 24 Stunden)

TLE

VeraltetSource: Space-Track

Epoche: Feb 25, 2025, 14:34 UTC

1 32992U 79101T   25056.60710858 -.00000094  00000-0  00000+0 0  9999
2 32992  13.1437 312.3523 4670485 354.0087 328.2287  1.78290476114244

Verfolge SATCOM 3 DEB * in Echtzeit mit AllMySat

Download on the App Store